Content
SEND FEEDBACK

Daily
Averages
Monthly
Summary
United States of America

ANN ARBOR, MICHIGAN


Home > North America > United States > Michigan
Elevation: 759 feet     Latitude: 42 17N     Longitude: 083 43W

WEATHER
 
SELECT A DAY
Number of Records: 202,962;   Date Range: 1/1/95 - 7/7/14
 
SHARE

PRINT THIS DATA

[ ← Previous Day ]
WEATHER ALMANAC - SEPTEMBER 25, 2013
[ Next Day → ]
[ °C ]   °F
Weather ElementAverageHighLow
Temperature54.2 °F70 °F (3:53 pm)43 °F (3:53 am)
Dewpoint47.5 °F54 °F (11:53 am)42.1 °F (3:53 am)
Humidity80.6 %100 % (5:53 am)52 % (5:53 pm)
Barometer29.99 in30.02 in (9:53 am)29.96 in (3:53 pm)
Wind Speed4.1 mph8.1 mph (12:53 pm)
Weather ElementAverage
Visibility8.1 mi
Wind DirectionNE (44.4 °)

Weather ElementTotal
Precipitation---
Heating Degree Days8.5 (Base 65)
Growing Degree Days6.5 (Base 50)
Averaged from 27 records on September 25, 2013
WEATHER CONDITIONS BREAKOUT
WIND DIRECTION BREAKOUT
WEATHER BY HOUR - SEPTEMBER 25, 2013
[ °C ]   °F
Local TimeTemperatureDewpointHumidityBarometerVisibilityWind DirectionWind SpeedGust SpeedPrecipitationEventsConditions
12:53 AM48.0 °F46.9 °F96 %30.01 in6.0 miENE (60°)5.8 mphClear
1:53 AM48.9 °F46.9 °F93 %30.00 in6.0 miNE (40°)4.6 mphClear
2:53 AM46.9 °F46.0 °F97 %29.99 in6.0 miNE (50°)3.5 mphClear
3:53 AM43.0 °F42.1 °F97 %29.99 in7.0 miNE (50°)3.5 mphClear
4:53 AM44.1 °F43.0 °F96 %29.98 in6.0 miNE (50°)3.5 mphClear
5:53 AM43.0 °F43.0 °F100 %29.99 in8.0 miNE (50°)3.5 mphClear
6:17 AM44.6 °F42.8 °F93 %29.99 in1.8 miCalmClear
6:24 AM46.4 °F44.6 °F93 %29.99 in0.8 miCalmClear
6:51 AM44.6 °F42.8 °F93 %29.99 in1.8 miCalmClear
6:53 AM45.0 °F42.1 °F90 %30.00 in5.0 miNE (50°)3.5 mphClear
7:53 AM48.0 °F46.9 °F96 %29.99 in10.0 miNE (50°)4.6 mphClear
8:53 AM52.0 °F48.9 °F89 %30.01 in10.0 miCalmClear
9:53 AM57.0 °F51.1 °F81 %30.02 in10.0 miNE (50°)3.5 mphClear
10:53 AM63.0 °F53.1 °F70 %30.02 in10.0 miENE (70°)6.9 mphClear
11:53 AM64.9 °F54.0 °F68 %30.01 in10.0 miVariable6.9 mphClear
12:53 PM64.0 °F53.1 °F67 %30.00 in10.0 miEast (80°)8.1 mphPartly Cloudy
1:53 PM66.0 °F53.1 °F63 %29.99 in10.0 miSE (140°)6.9 mphClear
2:53 PM69.1 °F52.0 °F54 %29.97 in10.0 miEast (80°)8.1 mphClear
3:53 PM70.0 °F52.0 °F53 %29.96 in10.0 miSSE (150°)8.1 mphClear
4:53 PM69.1 °F51.1 °F53 %29.96 in10.0 miEast (90°)8.1 mphClear
5:53 PM66.9 °F48.9 °F52 %29.97 in10.0 miNE (40°)6.9 mphClear
6:53 PM64.9 °F48.9 °F56 %29.98 in10.0 miNE (40°)5.8 mphClear
7:53 PM61.0 °F46.9 °F60 %29.98 in10.0 miNE (40°)4.6 mphClear
8:53 PM50.0 °F46.9 °F89 %29.99 in10.0 miCalmClear
9:53 PM48.9 °F46.0 °F90 %29.99 in10.0 miCalmClear
10:53 PM46.9 °F45.0 °F93 %30.00 in10.0 miCalmClear
11:53 PM46.0 °F44.1 °F93 %30.01 in10.0 miNNE (20°)4.6 mphClear
Hourly data recorded from KARB, located miles away from Ann Arbor, Michigan







STORIES FROM OUR PARTNERS